Aérodrome :
LOGIN :

S'inscrire | Disclaimer

   EN    FR    IT 

 










Légende :    VFR   VFR Marginal   IFR   IFR Intensif   IFR Très Intensif
Visi : 
Plafond : 
>= 8 km
>= 3000ft
5 à 8 km
1000 à 3000 ft
1500m à 5 km
500 à 1000 ft
800 à 1500m
200 à 500 ft
< 800m
< 200 ft
Symboles :   Orages  Brouillard  Fortes neiges  Fortes précipitations  Vent > 20 kt
SIGMETs :   Divers  Orages  Givrage  Turbulence  Onde Orograph.  Cendres Volcan.






- Altitude de l'aérodrome : 129 ft
- Code IATA : ZCN


ETHC - Celle

DERNIER METAR :
  • 211320Z 08005KT 3400 -DZ BR OVC002 06/05 Q1009 AMB RED TEMPO YLO

METARs EXPIRÉS :
  • 211220Z 08005KT 3500 -DZ BR OVC002 06/05 Q1010 AMB RED TEMPO YLO
  • 211120Z 08004KT 3500 -DZ BR OVC002 05/05 Q1011 AMB RED TEMPO YLO

TAF TAF ETHC
Valide du 21 à 12h jusqu'au 21 à 21h UTC


211115Z 2112/2121 05003KT 1000 BR OVC001
TEMPO 2112/2121 06005KT 3000 -DZ BKN004



MET'MAP, la Météo Aéronautique d'un coup d'oeil ! - Copyright ORBIFLY Décembre 2007 - Disclaimer

ORBIFLY MET'MAP TEAM :

Programmation & Développement : Alexandra Zaïnal
Conception & Développement : Baudouin d'Aumeries
Co-Programmation & Développement : Marc-Olivier Méhu
Soutien technique & logistique : Manuel Goepfert

Contact : metmap@orbifly.com




SOURCES & CREDITS :

   NOAA